«

»

Imprimir esta Entrada

Matías Rossi se quedó con la final del STC2000

Matías Rossi STC2000En el trazado más corto del calendario se llevó a cabo este mediodía la segunda final del año del Súper TC2000 y el bonaerense Matías Rossi fue el ganador en el autódromo Municipal Juan Manuel Fangio de Rosario, tras aguantar los reiterados ataques de Agustín Canapino.
A pesar de haber liderado las 39 vueltas que tuvo la competencia, el piloto del Toyota Team Argentina no la tuvo fácil y siempre fue presionado por Agustín Canapino, quien lo busco por todos lados en un circuito donde es muy difícil superar. También fue preciso en el manejo de los tiempos, sobre todo en los relanzamientos que la prueba tuvo, ante varias neutralizaciones con el ingreso del auto de seguridad.
El obereño Rafael Morgenstern (Toyota), clasificó 23º a tres giros del vencedor.

Rossi, quien logró su segunda victoria en Rosario, llegó a su vigésimo sexto triunfo en la categoría y no ganaba desde los “200 Kilómetros” del año pasado en La Pampa, donde ganó junto a Gabriel Ponce de León.

En segundo lugar, y tras no poder superar al oriundo de Del Viso, quedó el piloto arrecifeño de Chevrolet, mientras que Matías Milla logró su primer podio en la divisional y cerró un fin de semana fantástico al mando de su Toyota Corolla.

Leonel Pernía nunca tuvo auto para pelear por la victoria y debió conformarse con la cuarta posición, siendo el mejor de Renault. La quinta ubicación le correspondió a Mariano Werner, el mejor usuario de Peugeot.

La temporada 2016 continuara el 8 de mayo en el autódromo Jorge Ángel Pena de San Martin, Mendoza.

Clasificación final

Pos No. Name Laps Total time Diff Best time In lap Best speed
1 7 MATIAS ROSSI 16 18:30.107 01:02.224 14 150.135
2 5 AGUSTIN CANAPINO 16 18:31.078 00:00.971 01:02.243 16 150.089
3 3 LEONEL PERNIA 16 18:31.958 00:01.851 01:02.301 12 149.949
4 18 MATIAS MILLA 16 18:32.848 00:02.741 01:02.288 16 149.981
5 0 MARIANO WERNER 16 18:35.665 00:05.558 01:02.500 11 149.472
6 4 FACUNDO ARDUSSO 16 18:35.986 00:05.879 01:02.295 12 149.964
7 11 EMILIANO SPATARO 16 18:36.349 00:06.242 01:02.042 14 150.575
8 9 JOSE MANUEL URCERA 16 18:38.419 00:08.312 01:02.439 15 149.618
9 13 MATIAS MUÑOZ MARCHESI 16 18:38.864 00:08.757 01:02.201 16 150.191
10 20 FACUNDO CHAPUR 16 18:40.520 00:10.413 01:02.481 16 149.517
11 31 BERNARDO LLAVER 16 18:41.651 00:11.544 01:02.798 16 148.763
12 8 ESTEBAN GUERRIERI 16 18:42.071 00:11.964 01:02.578 11 149.286
13 6 NORBERTO FONTANA 16 18:42.477 00:12.370 01:02.188 16 150.222
14 19 DAMIAN FINESCHI 16 18:45.255 00:15.148 01:02.654 10 149.105
15 87 BRUNO ETMAN 15 17:42.209 1 Lap 01:02.650 15 149.114
16 22 GERMAN SIRVENT 15 17:43.164 00:00.955 01:02.547 12 149.360
17 27 FACUNDO CONTA 15 17:44.879 00:02.670 01:02.698 11 149.000
18 26 LUCIANO FARRONI 15 17:46.644 00:04.435 01:02.781 12 148.803
19 16 LUCAS BENAMO 15 17:50.513 00:08.304 01:02.632 15 149.157
20 14 MANUEL MALLO 15 17:52.969 00:10.760 01:02.110 15 150.411
21 10 JAVIER MERLO 14 16:51.142 2 Laps 01:03.138 12 147.962
22 25 JAVIER MANTA 14 18:16.442 01:25.300 01:03.845 14 146.323
23 17 RAFAEL MORGENSTERN 13 15:50.730 3 Laps 01:03.246 8 147.709
24 21 IGNACIO JULIAN 13 18:01.373 02:10.643 01:03.646 9 146.781
25 2 FABIAN YANNANTUONI 11 13:40.262 5 Laps 01:03.815 9 146.392
26 15 LUCAS COLOMBO RUSSELL 11 13:52.747 00:12.485 01:05.150 9 143.392
27 12 CHRISTIAN LEDESMA 0 00:00.000 00:00.000 –:–:–.— 0 0.000

Enlace permanente a este artículo: http://www.deportesmisiones.com.ar/automovilismo/automovilismo-nacional/2016/04/10/matias-rossi-se-quedo-con-la-final-del-stc2000/

Deja un comentario

Tu dirección de correo electrónico no será publicada. Los campos obligatorios están marcados con *

Puedes usar las siguientes etiquetas y atributos HTML: <a href="" title=""> <abbr title=""> <acronym title=""> <b> <blockquote cite=""> <cite> <code> <del datetime=""> <em> <i> <q cite=""> <s> <strike> <strong>

Optimization WordPress Plugins & Solutions by W3 EDGE